TimeMDT,TemperatureF,Dew PointF,Humidity,Sea Level PressureIn,VisibilityMPH,Wind Direction,Wind SpeedMPH,Gust SpeedMPH,PrecipitationIn,Events,Conditions,WindDirDegrees,DateUTC
12:43 AM,73.4,50.0,44,29.84,8.0,Calm,Calm,-,N/A,,Clear,0,2012-10-21 06:43:00
1:43 AM,68.0,50.0,52,29.84,7.0,ENE,4.6,-,N/A,,Clear,60,2012-10-21 07:43:00
2:46 AM,71.6,50.0,46,29.82,7.0,Calm,Calm,-,N/A,,Clear,0,2012-10-21 08:46:00
3:44 AM,69.8,50.0,49,29.85,7.0,NNE,5.8,-,N/A,,Clear,30,2012-10-21 09:44:00
4:43 AM,69.8,50.0,49,29.85,7.0,Calm,Calm,-,N/A,,Clear,0,2012-10-21 10:43:00
5:49 AM,66.2,50.0,56,29.82,7.0,Calm,Calm,-,N/A,,Clear,0,2012-10-21 11:49:00
6:46 AM,68.0,50.0,52,29.88,7.0,Calm,Calm,-,N/A,,Clear,0,2012-10-21 12:46:00
7:43 AM,68.0,50.0,52,29.89,10.0,ENE,4.6,-,N/A,,Partly Cloudy,70,2012-10-21 13:43:00
8:41 AM,73.4,51.8,47,29.88,10.0,East,6.9,-,N/A,,Partly Cloudy,80,2012-10-21 14:41:00
9:51 AM,77.0,51.8,41,29.94,10.0,East,4.6,-,N/A,,Partly Cloudy,80,2012-10-21 15:51:00
10:50 AM,82.4,57.2,42,29.94,10.0,East,5.8,-,N/A,,Scattered Clouds,100,2012-10-21 16:50:00
11:49 AM,84.2,53.6,35,29.93,10.0,SSE,6.9,-,N/A,,Scattered Clouds,150,2012-10-21 17:49:00
12:50 PM,87.8,50.0,27,29.91,10.0,SSE,9.2,-,N/A,,Scattered Clouds,150,2012-10-21 18:50:00
1:43 PM,89.6,48.2,24,29.88,10.0,SE,6.9,-,N/A,,Mostly Cloudy,130,2012-10-21 19:43:00
2:45 PM,91.4,48.2,23,29.81,10.0,SSW,16.1,-,N/A,,Scattered Clouds,210,2012-10-21 20:45:00
3:49 PM,89.6,50.0,26,29.84,10.0,South,9.2,-,N/A,,Clear,170,2012-10-21 21:49:00
4:43 PM,89.6,50.0,26,29.83,10.0,SW,11.5,-,N/A,,Partly Cloudy,220,2012-10-21 22:43:00
5:44 PM,87.8,46.4,24,29.79,10.0,South,13.8,-,N/A,,Clear,180,2012-10-21 23:44:00
6:43 PM,82.4,51.8,35,29.83,10.0,SW,11.5,-,N/A,,Clear,220,2012-10-22 00:43:00
7:43 PM,78.8,55.4,44,29.84,10.0,SW,8.1,-,N/A,,Clear,220,2012-10-22 01:43:00
8:48 PM,73.4,53.6,50,29.83,10.0,Calm,Calm,-,N/A,,Clear,0,2012-10-22 02:48:00
9:44 PM,73.4,57.2,57,29.87,10.0,Calm,Calm,-,N/A,,Clear,0,2012-10-22 03:44:00
10:41 PM,73.4,57.2,57,29.87,10.0,Calm,Calm,-,N/A,,Clear,0,2012-10-22 04:41:00
11:40 PM,69.8,57.2,64,29.85,10.0,Calm,Calm,-,N/A,,Clear,0,2012-10-22 05:40:00